Location: ?kun?ru
(16.3916°N, 80.8194°E)
Time: 15:37:49
(UTC+00:00)

Cosmos 2184 Rocket - Pass Details

Date: 19 May 2025
Orbit: 959 x 1000 km, 82.9° (Epoch: 17 June)

Event Time Altitude Azimuth Distance (km) Brightness Sun altitude
Rises 14:47:50 0° 6° (N) 3,677 7.3 -23.8°
Reaches altitude 10° 14:50:28 10° 13° (NNE) 2,734 6.5 -24.3°
Enters shadow 14:55:56 44° 71° (ENE) 1,333 4.4 -25.5°
